Location: Zagreb
(45.8000°N, 16.0000°E)
Time: 23:52:13
(UTC+01:00)

DX 1 - Visible Passes

Search period start: 30 October 2020 00:00
Search period end: 09 November 2020 00:00
Orbit: 618 x 631 km, 98.5° (Epoch: 30 October)

Date Brightness Start Highest point End Pass type
(mag) Time Alt. Az. Time Alt. Az. Time Alt. Az.
30 Oct ? 04:22:51 10° ESE 04:26:18 24° ENE 04:29:45 10° NNE visible
30 Oct ? 05:58:15 10° SSW 06:02:15 37° W 06:06:17 10° NNW visible
30 Oct ? 17:43:37 10° NE 17:47:24 29° E 17:51:10 10° SSE visible
30 Oct ? 19:19:43 10° N 19:23:31 30° WNW 19:27:18 10° SW visible
31 Oct ? 04:40:59 10° SE 04:44:54 35° ENE 04:48:49 10° N visible
31 Oct ? 18:02:04 10° NNE 18:06:14 44° E 18:10:23 10° S visible
31 Oct ? 19:38:52 10° NNW 19:42:06 21° WNW 19:45:19 10° WSW visible
01 Nov ? 04:59:21 10° SSE 05:03:32 53° ENE 05:07:45 10° N visible
01 Nov ? 18:20:40 10° NNE 18:25:01 69° ESE 18:29:21 10° S visible
01 Nov ? 19:58:18 10° NNW 20:00:37 14° WNW 20:02:57 10° W visible
02 Nov ? 03:46:13 10° ENE 03:46:50 10° ENE 03:47:27 10° NE visible
02 Nov ? 05:17:55 10° SSE 05:22:14 82° ENE 05:26:35 10° NNW visible
02 Nov ? 18:39:24 10° N 18:43:45 76° WNW 18:48:05 10° SSW visible
03 Nov ? 04:02:51 10° E 04:05:20 15° ENE 04:07:48 10° NNE visible
03 Nov ? 05:36:42 10° S 05:40:58 64° WSW 05:45:17 10° NNW visible
03 Nov ? 17:23:05 10° NE 17:26:02 18° E 17:28:57 10° SE visible
03 Nov ? 18:58:14 10° N 19:02:26 49° WNW 19:06:38 10° SW visible
04 Nov ? 04:20:33 10° ESE 04:23:51 22° ENE 04:27:11 10° NNE visible
04 Nov ? 05:55:42 10° S 05:59:46 40° W 06:03:52 10° NNW visible
04 Nov ? 17:41:13 10° NE 17:44:55 26° E 17:48:35 10° SSE visible
04 Nov ? 19:17:11 10° N 19:21:04 32° WNW 19:24:57 10° SW visible
05 Nov ? 04:38:37 10° SE 04:42:26 32° ENE 04:46:18 10° N visible
05 Nov ? 17:59:37 10° NNE 18:03:45 40° E 18:07:51 10° S visible
05 Nov ? 19:36:18 10° NNW 19:39:40 22° WNW 19:43:02 10° WSW visible
06 Nov ? 04:56:56 10° SE 05:01:05 48° ENE 05:05:15 10° N visible
06 Nov ? 18:18:32 12° NNE 18:22:33 63° ESE 18:26:51 10° S visible
06 Nov ? 19:55:50 11° NNW 19:58:12 16° WNW 20:00:47 10° W visible
07 Nov ? 05:15:28 10° SSE 05:19:46 75° ENE 05:24:06 10° N visible
07 Nov ? 18:37:59 17° NNE 18:41:17 84° WNW 18:45:38 10° SSW visible
07 Nov ? 20:15:46 10° NW 20:16:42 11° WNW 20:17:37 10° WNW visible
08 Nov ? 04:00:39 10° E 04:02:54 14° ENE 04:05:08 10° NNE visible
08 Nov ? 05:34:12 10° S 05:38:29 71° WSW 05:42:49 10° NNW visible
08 Nov ? 17:20:47 10° NE 17:23:30 16° E 17:26:14 10° SE visible
08 Nov ? 18:57:22 22° N 18:59:58 54° WNW 19:04:13 10° SSW visible
